Location: Newark
(47.5833°N, 8.1500°E)
Time: 16:50:14
(UTC+00:00)

Transit 2A - Pass Details

Date: 31 October 2020
Orbit: 595 x 964 km, 66.7° (Epoch: 29 November)

Event Time Altitude Azimuth Distance (km) Brightness Sun altitude
Rises 21:37:59 0° 145° (SE) 3,625 - -51.7°
Reaches altitude 10° 21:43:46 10° 104° (ESE) 2,698 - -52.3°
Maximum altitude 21:44:17 10° 99° (E) 2,690 - -52.3°
Drops below altitude 10° 21:44:48 10° 94° (E) 2,697 - -52.4°
Sets 21:50:31 0° 53° (NE) 3,610 - -52.9°
